Home   Weather   Boise   Past weeks
Flag for USA

Past Weather in Boise, Idaho, USA — Yesterday and Last 2 Weeks

Now
66 °F

Mostly cloudy.


Feels Like: 66 °F
Forecast: 71 / 51 °F
Wind: 20 mph from Northwest

Location: Boise Air Terminal

Current Time: Apr 23, 2019 at 10:12:15 pm

Latest Report: Apr 23, 2019 at 8:53 pm


Visibility: 10 mi

Pressure: 30.00 "Hg (27.25 "Hg at 822m altitude)

Humidity: 54%

Dew Point: 49 °F

Location of BoiseLocation

Past Weather in Boise — Graph

°F

Boise Temperature Yesterday

Maximum temperature yesterday: 68 °F (at 3:53 pm)
Minimum temperature yesterday: 41 °F (at 6:53 am)
Average temperature yesterday: 56 °F

High & Low Weather Summary for the Past Weeks

 TemperatureHumidityPressure
High82 °F (Apr 19, 3:53 pm)97% (Apr 15, 2:53 am)30.33 "Hg (Apr 15, 2:53 am)
Low36 °F (Apr 12, 5:53 am)21% (Apr 19, 5:53 pm)29.63 "Hg (Apr 20, 1:53 am)
Average52 °F63%29.96 "Hg
* Reported Apr 8 8:53 pm — Apr 23 8:53 pm, Boise. Weather by CustomWeather, © 2019

Note: Actual official high and low records may vary slightly from our data, if they occured in-between our weather recording intervals... More about our weather records

Advertising

Boise Weather History for the Previous 24 Hours

Scroll right to see more
 ConditionsComfort  
Time TempWeatherWind HumidityBarometerVisibility
8:53 pm
Tue, Apr 23
66 °FMostly cloudy.20 mph54%30.00 "Hg10 mi
7:53 pm71 °FSunny.7 mph41%29.98 "Hg10 mi
6:53 pm73 °FSunny.6 mph37%30.00 "Hg10 mi
5:53 pm73 °FSunny.8 mph36%30.01 "Hg10 mi
4:53 pm75 °FSunny.15 mph33%30.02 "Hg10 mi
3:53 pm74 °FSunny.13 mph37%30.04 "Hg10 mi
2:53 pm73 °FSunny.9 mph38%30.06 "Hg10 mi
1:53 pm71 °FSunny.9 mph39%30.07 "Hg10 mi
12:53 pm70 °FSunny.13 mph41%30.09 "Hg10 mi
11:53 am67 °FSunny.13 mph41%30.11 "Hg10 mi
10:53 am63 °FSunny.8 mph41%30.12 "Hg10 mi
9:53 am58 °FSunny.3 mph47%30.13 "Hg10 mi
8:53 am54 °FSunny.3 mph57%30.14 "Hg10 mi
7:53 am48 °FSunny.3 mph68%30.14 "Hg10 mi
6:53 am47 °FClear.6 mph69%30.13 "Hg10 mi
5:53 am49 °FClear.6 mph61%30.11 "Hg10 mi
4:53 am50 °FClear.No wind59%30.11 "Hg10 mi
3:53 am49 °FClear.5 mph66%30.11 "Hg10 mi
2:53 am50 °FClear.5 mph63%30.12 "Hg10 mi
1:53 am52 °FClear.No wind55%30.13 "Hg10 mi
12:53 am52 °FClear.No wind55%30.13 "Hg10 mi
11:53 pm
Mon, Apr 22
56 °FClear.3 mph49%30.13 "Hg10 mi
10:53 pm59 °FClear.No wind41%30.13 "Hg10 mi
Weather by CustomWeather, © 2019

See weather overview